Regional Weather Roundup
Issued by NWS Portland, ME

Home | Current Version | Previous Version | Text Only | Print | Product List | Glossary On
Versions: 1 2 3 4 5 6 7 8 9 10 11 12 13 14 15 16 17 18 19 20 21 22 23 24 25 26 27 28 29 30 31 32 33 34 35 36 37 38 39 40 41 42 43 44 45 46 47 48 49 50
000
ASUS41 KGYX 220610
RWRGYX
WEATHER ROUNDUP FOR MAINE AND NEW HAMPSHIRE
NATIONAL WEATHER SERVICE GRAY ME
200 AM EDT WED OCT 22 2014

MEZ002-005-006-010-012-015-018-020-021-024-026-027-029-220700-
MAINE

CITY           SKY/WX    TMP DP  RH WIND       PRES   REMARKS
PORTLAND       LGT RAIN  51  48  89 NE12      30.06R FOG
6HR MIN TEMP:  50; 6HR MAX TEMP:  53; 6HR PCP:  0.98;

SANFORD        CLOUDY    46  43  87 N12       30.04S
BAR HARBOR     CLOUDY    48  48 100 NE15G21   30.14S
WISCASSET      LGT RAIN  51  49  92 NE7       30.09S FOG
6HR MIN TEMP:  51; 6HR MAX TEMP:  54; 6HR PCP:  0.40;

ROCKLAND       CLOUDY    52  48  87 NE15G22   30.09S
FRYEBURG       HVY RAIN  46  44  93 VRB5      30.10S FOG
6HR MIN TEMP:  45; 6HR MAX TEMP:  47; 6HR PCP:  0.82;

LEWISTONAUBURN CLOUDY    46  43  87 NE17      30.09S
AUGUSTA        LGT RAIN  44  43  96 N13       30.12S
6HR MIN TEMP:  44; 6HR MAX TEMP:  45; 6HR PCP:  0.18;

WATERVILLE     CLOUDY    45  37  76 NE13G18   30.12S
BANGOR         LGT RAIN  46  44  93 NE10      30.17F
6HR MIN TEMP:  45; 6HR MAX TEMP:  47; 6HR PCP:  0.18;

GREENVILLE       N/A     40  36  86 NE10      30.17S
6HR MIN TEMP:  39; 6HR MAX TEMP:  41; 6HR PCP:  0.13;

MILLINOCKET    CLOUDY    43  35  73 NE9       30.26R
6HR MIN TEMP:  43; 6HR MAX TEMP:  44; 6HR PCP: TRACE;

HOULTON        CLOUDY    41  34  76 N6        30.27R
6HR MIN TEMP:  39; 6HR MAX TEMP:  42;

PRESQUE ISLE   CLOUDY    39  30  70 NE6       30.30R
6HR MIN TEMP:  37; 6HR MAX TEMP:  41;

FRENCHVILLE    CLOUDY    36  28  73 N8        30.30S
6HR MIN TEMP:  34; 6HR MAX TEMP:  39;

CARIBOU        CLOUDY    38  31  76 N7        30.30R
6HR MIN TEMP:  35; 6HR MAX TEMP:  42;

$$

NHZ002-005-008-009-011-012-014-220700-
NEW HAMPSHIRE

CITY           SKY/WX    TMP DP  RH WIND       PRES   REMARKS
PORTSMOUTH     CLOUDY    49  46  90 N12       30.00F
ROCHESTER      CLOUDY    48  45  89 N12G21    30.03S
6HR MIN TEMP:  47; 6HR MAX TEMP:  50; 6HR PCP:  0.10;

NASHUA         CLOUDY    50  49  96 N6        30.02S
MANCHESTER     CLOUDY    50  46  86 N8        30.01S
6HR MIN TEMP:  50; 6HR MAX TEMP:  54; 6HR PCP:  0.02;

CONCORD        CLOUDY    48  45  89 N7        30.03S
6HR MIN TEMP:  48; 6HR MAX TEMP:  50; 6HR PCP:  0.02;

LACONIA        CLOUDY    48  43  81 NE16      30.04S
PLYMOUTH       DRIZZLE   47  47 100 CALM      30.06S
BERLIN         LGT RAIN  44  43  96 N8        30.11F
6HR MIN TEMP:  44; 6HR MAX TEMP:  45; 6HR PCP:  0.15;

WHITEFIELD     RAIN      46  42  86 NE7       30.09F
6HR MIN TEMP:  45; 6HR MAX TEMP:  48; 6HR PCP:  0.14;

JAFFREY        CLOUDY    48  46  93 VRB3      30.01F
6HR MIN TEMP:  48; 6HR MAX TEMP:  49; 6HR PCP:  0.01;

LEBANON        CLOUDY    49  44  83 VRB3      30.06S
6HR MIN TEMP:  49; 6HR MAX TEMP:  50;

MT WASHINGTON  FRZ RAIN  30  30 100 E35G40      N/A  VSB 0   WCI  14
6HR MIN TEMP:  30; 6HR MAX TEMP:  33; 6HR PCP:  0.18;

$$

VTZ005-007-008-220700-
VERMONT

CITY           SKY/WX    TMP DP  RH WIND       PRES   REMARKS
ST JOHNSBURY     N/A     46  45  96 MISG      30.08
MONTPELIER     CLOUDY    45  44  97 N6        30.11S
BURLINGTON     CLOUDY    47  44  90 NW10      30.10S
$$

MAZ007-012-024-CTZ003-RIZ002-NYZ038-NYZ072-220700-
SOUTHERN NEW ENGLAND AND NY

CITY           SKY/WX    TMP DP  RH WIND       PRES   REMARKS
BOSTON         CLOUDY    52  50  93 N12       29.98F
WORCESTER      CLOUDY    48  47  96 NE10G18   29.98S FOG
NANTUCKET      CLEAR     53  53 100 N3        29.91F FOG
PROVIDENCE     CLOUDY    55  53  93 N13       29.95F
HARTFORD       CLOUDY    54  49  83 N14       29.95F
ALBANY         CLOUDY    50  47  89 N12       30.01F
NEW YORK CITY  CLOUDY    59  54  83 NE13      29.89F
$$

ANZ081-ANZ082-ANZ150-NHZ014-MEZ023>029-220700-
COASTAL MARINE OBSERVATIONS

STATION/POSITION TIME  TEMP    WIND        PRES    WAVE
                       AIR SEA DIR/SP/G            HT/PER
                 (UTC) (F)     (DEG/KT/KT) (MB)    (FT/S)
MOUNT DESERT ROC 0500   54                 1017.9
MATINICUS ROCK   0600           60/ 32/ 34 1016.9F
PORTLAND WX BUOY 0550   54 55   70/ 23/ 29 1016.2R   6/ 5
WELLS            0500   48 50  360/ 13/ 18 1015.7F
ISLE OF SHOALS   0600   50      10/ 23/ 26 1014.9F
JEFFREYS LEDGE   0521      56                N/A     5/ 6
CASHES LEDGE BUO 0550   56 56   70/ 21/ 27 1015.3F   5/ 7
$$

.............KEY..............
   WCI - WIND CHILL
   TC  - TEMPERATURE IN CELSIUS
   VSB - VISIBILITY IN MILES
   HX  - HEAT INDEX
   FAIR- INDICATES FEW OR NO CLOUDS BELOW 12,000 FT, WITH NO
         SIGNIFICANT WEATHER AND/OR OBSTRUCTIONS TO VISIBILITY.





USA.gov is the U.S. government's official web portal to all federal, state and local government web resources and services.